Simultaneous Nadir Overpasses (SNOs) Predictions

Prediction of SNOs between AQUA and METOP-B Satellite Orbit:

Table of predicted SNOs for the next 14.0 days since TLE Epoch: 5/4/2019
Index Date (AQUA) Time (AQUA) Lat,Lon (AQUA) SZA (AQUA ) Date (METOP-B) Time (METOP-B) Lat,Lon (METOP-B) SZA (METOP-B ) Distance(km) Time Diff (sec)
1 05/06/2019 00:47:21 73.88, 162.38 57.45 05/06/2019 00:46:54 73.85, 162.38 57.43 3.04 27
2 05/06/2019 01:36:47 -73.93, -30.09 122.51 05/06/2019 01:37:34 -73.95, -30.07 122.50 1.95 47
3 05/08/2019 19:31:57 -73.35, 62.32 123.88 05/08/2019 19:30:49 -73.29, 60.15 123.87 69.57 68
4 05/08/2019 20:21:34 73.87,-131.16 56.66 05/08/2019 20:21:16 73.86,-131.19 56.66 1.16 18
5 05/08/2019 21:11:00 -73.92, 36.38 123.30 05/08/2019 21:11:57 -73.91, 36.26 123.30 3.45 57
6 05/11/2019 15:06:17 -73.70, 128.00 124.24 05/11/2019 15:05:04 -73.65, 127.39 124.27 20.12 73
7 05/11/2019 15:55:48 73.86, -64.71 55.92 05/11/2019 15:55:39 73.87, -64.76 55.93 1.85 9
8 05/11/2019 16:45:15 -73.96, 102.72 123.99 05/11/2019 16:46:20 -73.93, 102.71 124.03 3.52 65
9 05/14/2019 10:40:33 -73.81,-165.78 124.84 05/14/2019 10:39:24 -73.81,-165.83 124.82 1.73 69
10 05/14/2019 11:30:02 73.86, 1.73 55.22 05/14/2019 11:30:02 73.88, 1.67 55.24 2.59 0
11 05/14/2019 12:19:29 -73.96, 169.16 124.69 05/14/2019 12:20:42 -73.99, 169.27 124.67 4.92 73
12 05/17/2019 06:14:47 -73.81, -99.34 125.50 05/17/2019 06:13:47 -73.83, -99.39 125.47 2.45 60
13 05/17/2019 07:04:16 73.87, 68.15 54.57 05/17/2019 07:04:25 73.89, 68.09 54.59 2.62 9




NCC Satellite Simultaneous Nadir Overpasses (SNOs) Prediction Service
